BEESAT-3 (39135 NORAD) Tracking and Keplerian Element Data

This shows tracking and keplerian element data for the satellite.

Feedback or suggestion? Click here.




ElementValue
Catalog39135
NameBEESAT-3
Epoch Orbit52149
Epoch Day269.33623275
Epoch Year2022
RAAN128.8158
Inclination64.8645
Eccentricity0.0039078
Argument of Perigee267.8288
Mean Anonmoly91.8367
Mean Motion15.25665928
Decay Rate9.241E-05
L11 39135U 13015F 22269.33623275 .00009241 00000+0 36143-3 0 9998
L22 39135 64.8645 128.8158 0039078 267.8288 91.8367 15.25665928521491

Live tracking and technical data element details for BEESAT-3 (NORAD 39135). BEESAT-3 can be tracked NOW for your location showing map with azimuth and elevation plus other details from your city location.

Track the satellite on the map from your city or location and see movement details for azimuth, elevation, latitude, longitude, range, height, and movement on the map or in text.







IsCatalogInMostPopularTable: catalog: 39135, numindb: 621
Update: records affected: 1



GetName: 39135 BEESAT-3

Hit Count: updated at: Thu, 29 Sep 2022 11:05:56 GMT